Wind_Speed
1 0 0 1 1 1 1 1 2 2 2 2 2 2 2 3 3 3 3 4 4 5 7 7 6 7 6 6 7 7 6 6 5 6 7 6 7 7 6 6 5 5 4
1 1 1 2 2 2 2 2 2 3 4 4 3 3 3 3 3 3 3 4 4 5 7 7 8 8 8 7 7 7 7 7 7 7 6 7 7 7 7 7 6 6 5
1 1 2 2 3 3 3 3 4 4 5 5 5 4 4 4 4 4 4 4 5 5 6 7 8 8 8 8 8 8 7 7 7 8 7 7 8 8 8 8 8 7 6
2 2 3 3 3 3 3 3 4 4 5 5 5 5 5 5 5 5 5 5 6 6 6 7 9 8 8 8 9 9 9 8 8 8 8 7 8 9 9 8 8 7 7
3 3 4 4 4 4 4 4 4 5 5 6 6 6 6 6 5 5 6 6 6 7 8 8 8 9 9 8 9 10 9 9 8 8 8 9 8 9 9 9 8 8 8
4 4 4 4 4 4 4 5 4 5 5 6 6 6 6 6 6 6 7 7 7 8 8 9 9 9 9 9 9 10 10 10 10 9 9 9 9 9 9 9 9 9 9
5 5 5 5 5 5 5 5 5 5 6 6 7 7 7 7 7 7 8 7 7 8 8 9 10 10 10 9 10 10 11 10 10 10 9 9 9 9 9 10 10 10 10
6 6 6 6 6 6 6 6 6 6 6 7 7 7 8 8 7 7 8 7 7 7 7 8 9 10 10 9 9 9 10 11 10 10 10 11 10 10 10 10 10 10 10
6 6 6 6 6 7 7 7 7 7 7 7 7 7 8 8 8 7 7 7 7 7 7 6 6 7 9 9 9 9 10 11 11 11 11 11 11 11 11 11 11 11 11
6 6 6 6 7 7 7 7 8 8 8 8 8 8 9 9 9 8 8 8 8 7 6 5 5 7 8 9 9 9 9 10 11 11 11 12 12 11 11 12 11 11 11
6 6 6 7 7 7 7 8 8 8 8 8 9 9 9 9 9 9 9 8 8 7 6 5 6 7 7 8 9 9 9 10 10 11 12 12 12 11 12 12 12 12 12
5 6 7 7 7 7 8 8 8 8 9 9 9 9 9 9 10 10 9 9 9 9 8 7 7 8 9 8 9 10 10 10 10 11 11 11 12 12 12 12 12 12 12
5 6 6 7 7 7 7 8 8 9 8 9 9 9 9 9 10 10 10 9 9 9 8 8 8 9 10 10 10 11 10 10 11 11 11 11 12 12 13 12 12 11 11
5 6 6 6 6 6 7 7 8 8 8 8 9 9 9 9 10 10 10 10 10 9 9 9 10 10 10 10 11 11 12 11 12 11 11 11 12 12 12 12 12 11 11
5 5 6 6 6 6 7 7 7 8 8 8 8 9 9 8 9 9 9 10 10 10 10 10 10 11 11 12 11 12 12 11 12 12 11 11 11 12 12 12 12 11 12
5 5 6 6 6 6 7 7 7 8 8 8 8 8 8 8 7 8 8 8 9 9 9 10 10 10 11 11 11 11 12 11 11 11 11 12 12 12 13 13 12 12 12
5 6 6 6 6 6 7 7 8 8 8 8 8 8 8 7 7 7 8 9 9 9 9 10 10 10 10 10 10 11 11 11 11 12 12 12 12 12 12 13 13 13 13
6 6 6 6 7 6 7 7 7 7 7 7 7 8 8 8 8 8 8 9 9 9 9 9 9 9 10 10 10 10 10 11 11 12 13 13 13 12 12 12 13 13 13
7 7 7 7 7 7 7 8 7 6 6 7 7 7 8 8 8 8 8 9 9 9 8 8 9 9 10 10 10 10 10 11 11 11 12 12 12 12 12 12 12 13 13
9 8 9 9 8 8 8 8 7 7 7 7 7 8 8 8 8 8 8 8 9 9 8 8 8 8 9 9 9 9 9 10 10 11 11 11 11 10 11 12 12 13 13
10 10 10 10 9 9 9 8 8 8 8 8 8 8 8 8 8 8 8 8 9 9 8 8 8 8 8 8 8 9 9 10 10 10 10 11 11 10 10 11 12 12 12
11 11 10 10 9 9 9 9 8 9 9 9 8 8 8 9 9 8 8 8 8 8 8 8 8 8 8 8 8 9 9 10 10 10 11 11 11 11 11 11 11 11 11
11 11 10 10 10 10 9 9 9 9 9 9 9 9 9 10 9 9 8 8 8 8 8 8 8 8 8 8 8 8 9 10 10 10 11 11 11 11 11 10 11 11 11
12 12 12 12 11 11 10 10 9 9 9 9 9 9 9 9 9 9 9 9 9 9 9 8 8 9 8 8 9 9 9 9 10 11 11 12 11 11 11 10 10 10 11
13 13 13 13 13 12 11 11 10 10 10 10 9 9 9 9 9 9 9 9 9 9 9 9 9 9 9 9 9 9 10 10 10 10 11 11 11 11 11 11 11 11 11
15 15 14 14 14 13 12 12 11 11 11 11 11 10 9 9 9 9 10 9 10 9 9 10 9 10 10 10 10 10 11 11 11 11 11 11 11 11 11 11 11 11 12
Wind_Direction
305 308 308 280 269 263 272 280 248 241 236 255 262 252 238 252 252 253 260 260 239 212 207 208 207 211 212 211 208 211 212 209 215 211 209 208 204 202 204 204 198 195 201
311 290 291 283 281 279 267 270 263 249 242 254 266 265 253 255 256 255 259 252 233 217 216 216 217 220 219 218 212 215 216 218 220 216 214 214 207 205 208 211 212 208 210
300 293 290 288 292 286 270 263 263 255 251 260 269 270 268 265 257 251 260 255 240 230 228 229 226 227 228 228 223 224 224 222 218 217 217 217 213 210 213 216 218 219 221
288 283 286 287 288 284 280 274 269 263 258 264 267 269 269 269 261 252 258 259 251 245 241 239 235 233 233 234 233 231 229 225 224 222 220 216 215 216 220 221 221 225 226
284 281 283 284 282 280 279 276 268 264 262 263 265 268 268 269 262 250 257 262 259 251 247 248 241 238 237 235 234 232 229 225 225 226 221 217 218 222 223 222 225 229 231
278 278 278 279 278 276 274 275 270 265 265 264 266 267 267 268 266 259 262 264 264 261 253 247 243 241 239 235 229 228 227 225 223 220 222 225 228 227 226 226 227 233 238
277 277 274 272 272 269 272 272 274 266 265 266 267 268 268 269 268 264 260 264 263 258 254 251 249 242 237 234 227 227 230 229 226 226 226 229 233 231 230 229 230 234 239
275 275 274 271 272 272 271 270 273 267 264 265 267 266 266 267 266 263 258 259 261 260 263 263 256 245 233 229 226 229 233 233 231 230 228 231 234 231 231 234 231 234 237
275 276 276 274 273 275 274 270 271 269 265 265 265 262 264 264 264 262 254 255 253 257 262 268 260 229 223 224 227 229 231 232 233 231 228 230 232 230 229 232 235 239 241
277 279 278 276 277 275 274 271 271 270 267 264 265 264 264 262 262 261 259 255 252 254 256 256 242 218 215 222 227 231 231 231 235 234 233 232 232 230 230 232 236 240 244
279 279 279 279 276 274 272 273 274 272 271 268 269 269 267 262 259 259 256 254 251 250 244 241 225 218 225 227 230 234 236 234 238 238 238 234 231 232 235 237 239 244 249
284 283 281 279 275 273 273 273 274 273 272 270 269 270 268 261 257 260 256 252 251 249 243 238 233 230 234 233 232 234 236 237 238 238 237 237 236 235 237 239 240 244 248
288 288 287 282 275 274 276 276 276 274 273 272 270 269 266 262 257 257 256 254 251 248 244 241 241 239 237 238 239 237 238 239 238 235 236 238 239 237 236 236 239 244 248
291 291 291 288 281 277 278 278 279 279 276 275 272 271 270 268 264 264 262 259 258 255 249 246 245 245 244 244 243 241 241 241 238 234 237 239 241 240 239 240 242 245 249
291 291 293 291 285 279 280 279 281 278 277 276 277 275 273 272 269 265 263 259 255 252 252 249 245 246 247 247 247 244 242 240 239 240 240 243 244 244 245 245 247 248 250
295 295 292 292 288 284 283 282 281 281 277 276 276 276 274 272 269 264 260 256 252 252 252 251 249 250 251 250 248 244 240 240 241 241 241 245 247 247 246 246 249 250 253
295 296 294 293 289 287 288 288 284 284 279 273 274 277 273 272 269 265 261 257 257 256 255 254 255 255 253 250 250 248 241 241 244 242 242 245 246 245 247 248 249 251 253
292 295 295 293 289 290 290 293 291 287 281 275 275 275 272 271 269 265 264 264 265 261 257 252 253 254 253 251 249 246 244 244 245 245 246 248 249 248 248 248 249 250 251
286 290 293 292 291 290 291 292 293 290 284 278 277 277 275 273 270 267 267 265 265 263 261 256 256 256 252 251 247 246 248 247 246 248 250 249 249 248 248 249 249 249 250
286 288 292 293 293 291 291 291 290 289 284 278 275 279 278 274 277 273 271 269 265 264 263 261 260 259 253 252 249 248 250 249 246 246 250 249 249 251 251 251 251 251 252
285 286 288 290 291 291 292 290 288 291 286 281 278 279 275 271 275 275 276 275 272 268 261 261 262 259 253 252 251 250 249 249 249 248 250 250 248 250 252 252 252 250 249
286 286 284 287 288 290 288 287 287 287 288 285 281 282 278 275 275 274 275 274 271 268 263 261 261 257 251 249 249 250 250 251 254 253 252 253 252 252 255 255 256 253 253
286 284 282 286 289 290 289 287 286 284 285 284 282 280 278 278 274 272 270 272 273 269 265 262 259 256 250 246 249 251 252 252 257 254 253 254 256 255 255 258 257 255 259
284 282 282 283 285 287 287 285 284 283 283 285 282 278 275 274 274 270 270 272 273 271 266 263 260 256 253 253 252 252 253 254 253 251 255 256 256 255 256 259 258 260 262
281 282 280 280 280 280 281 280 279 279 281 282 281 278 277 272 268 268 269 270 271 271 264 263 261 258 256 255 254 255 255 257 257 255 256 256 255 255 257 258 259 259 262
279 280 279 277 276 275 275 276 276 276 278 280 279 275 273 271 269 268 267 268 270 270 268 266 261 258 256 255 255 256 257 259 260 258 258 258 257 258 257 258 258 258 261
Height
5872 5872 5871 5871 5871 5871 5871 5870 5870 5870 5869 5868 5868 5867 5866 5866 5866 5865 5864 5863 5861 5860 5862 5864 5865 5866 5867 5867 5867 5867 5868 5869 5869 5870 5870 5870 5871 5872 5873 5873 5874 5874 5874
5872 5871 5871 5871 5870 5870 5870 5870 5869 5869 5869 5868 5867 5867 5866 5866 5865 5865 5864 5862 5860 5860 5862 5863 5864 5865 5866 5866 5866 5867 5868 5868 5869 5869 5869 5868 5869 5871 5872 5873 5873 5874 5874
5871 5870 5870 5870 5870 5870 5869 5869 5868 5868 5868 5867 5867 5866 5865 5865 5865 5864 5863 5862 5862 5861 5862 5862 5863 5864 5864 5865 5866 5866 5867 5868 5868 5869 5868 5868 5868 5870 5871 5872 5872 5873 5873
5870 5870 5870 5869 5869 5869 5868 5868 5867 5867 5867 5866 5866 5865 5865 5864 5863 5863 5862 5862 5861 5861 5861 5861 5862 5862 5863 5863 5864 5865 5866 5866 5867 5868 5868 5867 5868 5869 5870 5871 5871 5872 5872
5870 5869 5869 5868 5868 5868 5867 5867 5866 5866 5866 5865 5865 5864 5864 5863 5863 5862 5862 5861 5860 5860 5860 5860 5860 5861 5861 5862 5863 5863 5864 5865 5866 5866 5867 5867 5868 5869 5869 5870 5870 5871 5872
5869 5868 5868 5868 5867 5867 5866 5866 5865 5865 5864 5864 5864 5863 5863 5862 5862 5861 5860 5860 5859 5858 5858 5858 5858 5858 5859 5860 5861 5862 5863 5863 5864 5865 5866 5866 5867 5868 5868 5869 5869 5870 5870
5868 5867 5867 5867 5866 5866 5865 5865 5864 5864 5863 5863 5862 5862 5861 5861 5860 5860 5859 5858 5858 5857 5856 5856 5855 5855 5856 5858 5859 5860 5861 5862 5862 5863 5864 5865 5866 5867 5867 5867 5868 5868 5869
5866 5866 5866 5865 5865 5864 5864 5863 5863 5863 5862 5862 5861 5860 5860 5859 5859 5858 5858 5857 5856 5855 5854 5852 5849 5849 5852 5855 5857 5858 5859 5860 5861 5862 5863 5864 5864 5865 5866 5866 5866 5867 5867
5865 5865 5864 5864 5863 5863 5862 5862 5861 5861 5861 5860 5860 5859 5858 5858 5857 5857 5856 5855 5855 5854 5853 5850 5845 5845 5849 5853 5855 5856 5857 5858 5859 5860 5860 5862 5862 5863 5864 5864 5865 5865 5866
5864 5863 5863 5862 5862 5861 5861 5860 5860 5860 5859 5859 5858 5857 5857 5856 5856 5855 5854 5854 5853 5853 5852 5850 5848 5847 5850 5852 5853 5855 5856 5856 5857 5858 5858 5859 5860 5861 5862 5862 5863 5863 5864
5862 5862 5861 5861 5860 5860 5859 5859 5858 5858 5857 5857 5856 5855 5855 5854 5854 5853 5852 5852 5852 5852 5851 5850 5849 5849 5850 5851 5852 5853 5854 5855 5855 5856 5856 5857 5858 5859 5859 5860 5860 5861 5862
5861 5861 5860 5859 5859 5858 5858 5857 5857 5856 5855 5855 5854 5853 5853 5852 5852 5851 5851 5850 5850 5850 5850 5850 5850 5850 5850 5851 5851 5852 5853 5853 5853 5854 5854 5855 5856 5856 5857 5858 5858 5859 5859
5860 5859 5859 5858 5857 5857 5856 5855 5855 5854 5854 5853 5852 5852 5851 5850 5850 5849 5849 5849 5849 5848 5848 5848 5849 5849 5849 5849 5850 5850 5851 5851 5851 5852 5852 5853 5854 5854 5854 5855 5856 5856 5857
5859 5858 5857 5857 5856 5855 5855 5854 5853 5853 5852 5851 5850 5850 5849 5849 5848 5848 5847 5847 5847 5847 5847 5847 5847 5847 5847 5847 5848 5848 5848 5849 5849 5850 5850 5850 5851 5851 5852 5853 5853 5854 5854
5857 5857 5856 5855 5855 5854 5853 5853 5852 5851 5850 5849 5849 5848 5847 5847 5846 5846 5845 5845 5845 5845 5845 5845 5845 5845 5845 5845 5845 5846 5846 5847 5847 5847 5847 5848 5848 5849 5850 5850 5851 5851 5852
5857 5856 5855 5854 5854 5853 5852 5851 5850 5849 5848 5848 5847 5846 5846 5845 5844 5844 5844 5844 5843 5843 5843 5843 5843 5843 5843 5843 5843 5843 5844 5844 5845 5845 5845 5846 5846 5846 5847 5848 5848 5849 5849
5856 5855 5854 5853 5852 5851 5851 5850 5849 5848 5847 5846 5846 5845 5844 5843 5843 5843 5842 5842 5842 5841 5841 5841 5841 5841 5841 5841 5841 5841 5842 5842 5842 5843 5843 5843 5843 5844 5844 5845 5845 5846 5846
5854 5853 5853 5852 5851 5850 5849 5848 5847 5846 5845 5845 5844 5843 5843 5842 5841 5841 5841 5840 5840 5839 5839 5839 5839 5839 5839 5839 5839 5839 5839 5840 5840 5841 5841 5841 5841 5841 5842 5842 5842 5843 5843
5853 5852 5851 5850 5849 5848 5847 5846 5845 5845 5844 5843 5842 5842 5841 5840 5840 5839 5839 5838 5838 5838 5837 5837 5837 5837 5837 5837 5837 5837 5837 5838 5838 5838 5838 5838 5838 5838 5839 5839 5840 5840 5841
5851 5851 5850 5849 5848 5847 5846 5845 5844 5843 5842 5841 5841 5840 5839 5838 5838 5837 5837 5836 5836 5836 5835 5835 5835 5835 5835 5835 5835 5835 5835 5835 5835 5836 5836 5836 5836 5836 5836 5837 5837 5837 5838
5850 5849 5848 5847 5846 5845 5844 5843 5842 5841 5840 5840 5839 5838 5837 5836 5836 5835 5835 5834 5834 5834 5834 5833 5833 5833 5833 5833 5833 5833 5833 5833 5833 5833 5833 5833 5833 5833 5833 5834 5834 5834 5835
5848 5846 5846 5845 5844 5843 5842 5841 5840 5839 5838 5837 5836 5836 5835 5834 5834 5833 5833 5832 5832 5832 5831 5831 5831 5831 5831 5831 5831 5831 5831 5832 5831 5831 5831 5831 5831 5831 5831 5831 5832 5832 5832
5845 5844 5843 5843 5842 5841 5840 5839 5838 5837 5836 5835 5834 5834 5833 5832 5832 5831 5831 5830 5830 5829 5829 5829 5829 5829 5829 5829 5829 5829 5829 5829 5829 5829 5829 5829 5829 5829 5829 5829 5829 5829 5829
5842 5841 5841 5840 5839 5838 5838 5837 5836 5835 5834 5833 5832 5831 5831 5830 5830 5829 5829 5828 5828 5827 5827 5827 5827 5827 5827 5827 5827 5827 5827 5827 5827 5827 5827 5826 5826 5826 5826 5826 5826 5827 5827
5839 5839 5838 5837 5837 5836 5835 5834 5834 5833 5832 5831 5830 5829 5829 5828 5828 5827 5827 5826 5826 5825 5825 5825 5824 5824 5824 5825 5825 5824 5824 5824 5824 5824 5824 5824 5824 5824 5824 5824 5824 5824 5824
5836 5835 5834 5834 5833 5833 5832 5832 5831 5830 5829 5829 5828 5827 5826 5826 5826 5825 5825 5824 5824 5823 5823 5822 5822 5822 5822 5822 5822 5822 5822 5821 5821 5821 5821 5821 5821 5821 5821 5821 5821 5821 5821